This is the latest recevied weather packets stored in our database for station/object KD9JJA. If no packets are shown the sender has not sent any weather packets the latest 10 day(s).
| Time | Temp. | Humidity | Pressure | Rain* | Wind** | Luminosity | Snow |
|---|---|---|---|---|---|---|---|
| 1778005803 | 15° C | 99% | 1009.5 hPa | 0 mm | - | 64 W/m² | - |
| 1778005500 | 15° C | 99% | 1009.6 hPa | 0 mm | - | 39 W/m² | - |
| 1778005196 | 15° C | 99% | 1009.5 hPa | 0 mm | - | 92 W/m² | - |
| 1778004893 | 15° C | 99% | 1009.7 hPa | 0 mm | - | 60 W/m² | - |
| 1778004590 | 15° C | 99% | 1009.5 hPa | 0 mm | - | 47 W/m² | - |
| 1778004286 | 15° C | 99% | 1009.6 hPa | 0 mm | - | 53 W/m² | - |
| 1778003983 | 15° C | 99% | 1009.6 hPa | 0 mm | - | 39 W/m² | - |
| 1778003679 | 15° C | 99% | 1009.7 hPa | 0 mm | - | 41 W/m² | - |
| 1778003376 | 15.56° C | 99% | 1009.7 hPa | 0 mm | - | 66 W/m² | - |
| 1778003074 | 15.56° C | 99% | 1010.3 hPa | 0 mm | - | 45 W/m² | - |
| 1778002769 | 15.56° C | 99% | 1010.2 hPa | 0 mm | - | 33 W/m² | - |
| 1778002466 | 15.56° C | 99% | 1010.1 hPa | 0 mm | - | 43 W/m² | - |
| 1778002163 | 15.56° C | 99% | 1009.9 hPa | 1.78 mm | - | 30 W/m² | - |
| 1778001861 | 15.56° C | 99% | 1010.4 hPa | 3.05 mm | - | 33 W/m² | - |
| 1778001560 | 15.56° C | 99% | 1010.4 hPa | 3.05 mm | - | 38 W/m² | - |
| 1778001258 | 15.56° C | 99% | 1010.5 hPa | 1.27 mm | - | 28 W/m² | - |
| 1778000954 | 15.56° C | 98% | 1010.3 hPa | 0 mm | - | 37 W/m² | - |
| 1778000651 | 15.56° C | 97% | 1010.5 hPa | 0 mm | - | 41 W/m² | - |
| 1778000346 | 16.11° C | 96% | 1010.7 hPa | 0 mm | - | 28 W/m² | - |
| 1778000043 | 16.11° C | 94% | 1010.5 hPa | 0 mm | - | 12 W/m² | - |
| 1777999738 | 16.11° C | 94% | 1010.4 hPa | 0 mm | - | 32 W/m² | - |
| 1777999435 | 16.11° C | 94% | 1010.7 hPa | 0 mm | - | 16 W/m² | - |
| 1777999133 | 16.11° C | 94% | 1010.5 hPa | 0 mm | - | 16 W/m² | - |
| 1777998832 | 16.11° C | 93% | 1010.3 hPa | 0 mm | - | 23 W/m² | - |
| 1777998530 | 16.11° C | 94% | 1010.5 hPa | 0 mm | - | 30 W/m² | - |
* Rain latest hour (hover to see other rain measurements)
** Current wind speed in m/s (hover to see current wind gust speed)